Vertical_Velocity
-3 -4 -6 -3 -7 -5 -4 -7 -0 -2 -4 -7 -6 -4 -4 1 4 -6 -0 1 2 -3 -2 2 4 1 1 3 -1 1 0 1 3 2 -1 -0 -1 1 1 0 -2 -1 -1
-5 -1 -3 -3 -4 -2 -2 -2 -8 -6 -6 -1 -5 -2 -4 3 2 -1 -6 -5 1 2 3 1 0 3 6 1 4 4 2 -2 -1 1 3 1 -0 -1 0 0 2 -1 -0
4 -3 -5 -2 -0 -2 -0 -6 -8 -7 1 -1 -1 -4 -2 1 2 -4 -3 -0 -3 2 -2 -3 1 3 -0 4 4 6 1 -3 1 1 -3 -1 2 -2 -2 1 0 -1 1
-10 4 -3 -2 3 -4 -2 4 1 8 6 1 3 -4 -2 1 2 -8 3 -1 -5 -2 -1 -2 -7 -3 -1 1 4 7 4 -1 7 -4 -4 -2 -0 4 4 -2 2 2 -3
6 4 2 -3 -7 -6 -3 -0 2 3 -0 -0 -2 -2 -8 2 5 -7 1 -2 -5 -8 -4 -5 -2 -6 -5 -5 -2 0 8 -2 -7 2 -1 11 -2 -2 -4 -0 -4 0 4
-2 -1 0 1 2 2 2 0 1 2 0 3 0 2 -3 -1 2 1 3 1 -1 -3 -8 -5 -5 -4 -3 -3 -0 -4 -7 -1 9 -1 1 -1 6 -3 -5 -2 -0 -2 1
1 -4 -0 0 1 1 0 -0 0 -0 0 -1 -2 2 -0 -4 2 -0 2 1 -1 3 -1 -4 -8 -7 -5 -6 -7 -2 5 -1 -4 -6 3 8 9 4 -5 -6 -3 -1 -4
0 1 1 -2 -3 -1 -3 -3 -2 1 -4 -4 -4 -1 2 10 -1 -2 3 1 0 5 4 -7 -8 -11 -10 -7 -7 -0 -0 -3 -4 2 -7 -7 -1 0 11 4 -6 -3 1
3 4 3 1 1 4 4 1 -2 -0 -2 -1 -7 -4 -6 -6 -2 1 1 1 10 7 5 4 -7 -13 -15 -12 -12 -9 -9 -3 -0 2 1 -7 -4 -1 -3 0 12 -1 -2
-1 -1 -2 -1 -3 -1 -2 -1 -4 -5 -5 -2 -8 -6 -9 -14 -10 -5 -4 -7 -6 -8 -2 1 -12 7 4 -5 -9 -4 -5 -3 -3 -1 1 1 -7 -9 -0 -3 -3 3 3
-1 1 -2 -1 -4 -2 -7 -4 -4 -3 -4 -4 -4 -1 -0 3 -4 -10 -5 -2 -6 -12 -10 -1 -0 -1 2 -0 -3 -3 -8 -4 -0 -1 0 -2 -4 -4 -8 3 -3 -2 -2
-3 -1 -2 -1 -2 -2 -2 -2 -2 -1 -1 0 -1 -4 -7 -5 -6 -4 -13 -12 -16 -2 -0 1 1 -8 -2 2 -1 -3 0 -0 -5 -2 1 -1 -1 -5 -3 -2 -0 -3 1
-2 -0 -2 -3 -2 -3 -2 -2 -4 -5 -2 -3 -5 -6 -7 -3 -8 -1 -9 -13 -20 -0 3 3 1 -2 -0 -2 -5 2 3 -3 -5 -3 -3 0 -1 -2 -2 -3 -4 0 -4
-1 1 0 -2 -4 1 -0 0 -3 -1 -4 -1 -3 -2 1 1 0 -8 -7 -16 -7 -4 3 -0 0 -3 -5 0 2 1 -5 -3 -2 -0 -2 -1 -2 -1 1 -1 1 -1 -3
-6 -3 -0 1 -5 -2 -0 3 -2 2 1 6 0 -1 -1 -2 -6 -5 -5 -8 -7 -10 10 13 -2 -6 -0 1 -2 -6 -5 -3 -5 -4 -3 -4 -4 -2 -4 -4 -0 1 -0
-0 0 5 -1 2 -4 -5 -5 -1 -2 -5 -8 -9 0 -5 -10 -11 -9 -12 -6 -6 -9 -10 0 2 -5 -0 1 0 -3 -2 -2 -3 -4 -3 -4 -4 -1 -1 -2 -1 -3 0
0 -1 -2 -0 0 1 4 -2 -3 -2 7 -0 -2 5 -2 -8 -4 -5 -3 -1 -3 -6 -8 11 -5 -4 3 -2 0 -4 -2 -3 -2 -2 -2 -7 -1 -1 -2 -1 -4 -2 -0
-0 -2 1 -0 1 1 -1 -0 3 -4 -0 -3 3 -2 -7 -6 -7 -8 -3 -3 -3 -4 -8 0 2 -1 -2 -3 -1 -1 -0 -3 -3 -1 -1 -3 -1 -3 -4 -1 -2 -2 -2
1 -2 -1 -2 -2 -1 2 -5 0 3 3 2 -1 -2 -4 -4 0 -2 -4 -0 -1 -3 -5 -6 2 -4 -1 -6 2 -3 2 -1 -0 -5 -0 -1 -4 -0 2 -2 -4 -2 -2
-0 -0 -1 -2 -3 1 3 1 -2 1 2 0 -6 -5 -9 -6 -2 2 -1 -0 -1 0 -1 -1 -3 2 -5 -1 -1 -3 6 -5 1 -5 -0 -1 -0 0 -0 -6 -3 5 -2
-1 -5 1 0 0 7 14 3 -0 -3 4 -5 -7 -2 -4 -2 -1 1 -0 -0 -3 -1 -2 1 -4 -0 -5 -0 -1 -1 -2 2 0 -2 -0 -5 1 2 -4 -5 5 -0 -2
-4 7 3 6 8 4 -1 5 -2 -2 -5 -9 1 -2 -0 -1 -1 -1 0 -0 -1 1 1 1 -1 1 -3 -3 -1 -3 -3 -3 12 -21 2 1 -0 -0 -2 -0 -1 2 -2
-1 4 2 3 1 3 5 4 -6 -7 -2 -6 5 -0 1 1 -1 0 -2 -1 -1 -3 -3 2 3 -2 2 -3 -1 3 -2 0 -2 -1 -2 1 -2 2 -2 0 -3 -2 1
4 -1 1 -0 2 -1 -1 -7 -7 -5 2 1 -1 -1 0 4 -2 1 0 0 -2 -1 -1 -2 -2 0 -3 -3 -4 -3 1 -2 -3 -3 0 3 -6 1 2 1 3 2 -1
-0 0 1 3 -0 1 -6 -9 -7 -4 0 -2 0 1 -2 -2 1 0 -1 1 -1 -1 -3 -1 -1 -1 -1 -2 -1 -2 -4 -0 -1 -4 -1 -1 -5 1 -2 4 -3 -1 2
0 -1 4 1 -4 -7 -7 -6 -2 1 3 1 -2 -0 0 -1 0 0 0 0 0 1 1 -2 -4 -3 -2 -4 -2 -2 -1 -2 1 -5 -0 -2 -3 -2 -2 -1 -2 2 3
Height
5811 5808 5805 5803 5800 5797 5794 5790 5787 5784 5781 5777 5774 5771 5767 5765 5763 5758 5756 5754 5752 5750 5747 5747 5747 5746 5747 5746 5745 5744 5744 5745 5746 5746 5746 5747 5747 5748 5748 5748 5748 5749 5751
5805 5803 5800 5797 5795 5791 5788 5785 5782 5777 5772 5770 5765 5762 5759 5757 5753 5749 5746 5743 5742 5740 5738 5738 5737 5737 5737 5735 5733 5732 5732 5733 5733 5734 5735 5735 5737 5737 5738 5739 5740 5741 5742
5801 5798 5795 5791 5788 5786 5783 5778 5772 5767 5764 5761 5757 5754 5750 5746 5741 5736 5733 5732 5729 5728 5726 5724 5722 5723 5723 5723 5723 5721 5719 5719 5719 5719 5720 5722 5723 5725 5726 5728 5729 5731 5733
5795 5791 5787 5784 5782 5778 5773 5768 5764 5760 5757 5753 5749 5743 5739 5736 5732 5726 5723 5719 5715 5712 5710 5709 5708 5707 5707 5707 5707 5707 5705 5703 5703 5703 5703 5706 5709 5711 5713 5714 5716 5719 5722
5788 5785 5781 5776 5772 5767 5763 5759 5755 5751 5747 5742 5737 5731 5726 5723 5719 5714 5712 5708 5702 5698 5695 5692 5690 5688 5688 5689 5688 5687 5688 5687 5683 5682 5684 5686 5689 5693 5695 5697 5700 5704 5707
5780 5777 5772 5769 5765 5760 5755 5750 5747 5742 5736 5732 5727 5721 5716 5712 5709 5705 5701 5696 5691 5685 5679 5674 5672 5670 5667 5666 5665 5666 5666 5666 5666 5664 5663 5663 5666 5670 5674 5679 5683 5686 5691
5772 5768 5764 5759 5755 5751 5746 5742 5737 5732 5726 5720 5716 5711 5706 5701 5697 5692 5688 5682 5676 5670 5662 5654 5647 5646 5644 5642 5639 5638 5637 5639 5640 5640 5640 5641 5643 5646 5648 5653 5662 5667 5671
5766 5762 5757 5752 5748 5743 5737 5732 5726 5720 5713 5707 5702 5698 5695 5692 5686 5679 5673 5664 5658 5650 5640 5630 5622 5617 5614 5612 5610 5609 5607 5605 5606 5608 5609 5613 5614 5618 5626 5630 5634 5644 5650
5760 5755 5750 5744 5738 5732 5727 5720 5714 5708 5701 5694 5689 5684 5679 5674 5669 5663 5655 5646 5638 5629 5616 5604 5594 5587 5580 5575 5573 5572 5570 5570 5571 5573 5574 5579 5584 5587 5592 5599 5609 5615 5626
5752 5746 5739 5733 5727 5720 5714 5707 5700 5694 5688 5682 5675 5668 5662 5656 5650 5646 5635 5625 5614 5601 5587 5572 5560 5556 5549 5544 5542 5540 5537 5537 5537 5539 5540 5542 5547 5554 5559 5566 5575 5585 5597
5741 5735 5728 5721 5714 5707 5700 5695 5688 5681 5675 5669 5663 5656 5647 5639 5630 5622 5617 5605 5593 5573 5554 5540 5527 5522 5517 5515 5512 5510 5509 5509 5509 5510 5510 5510 5511 5517 5527 5535 5541 5551 5562
5730 5724 5716 5709 5701 5695 5688 5682 5675 5669 5661 5654 5646 5637 5629 5620 5610 5601 5590 5580 5564 5548 5528 5515 5506 5498 5496 5493 5491 5489 5489 5488 5487 5486 5486 5487 5487 5488 5494 5504 5510 5517 5528
5718 5712 5704 5697 5690 5683 5676 5668 5661 5654 5647 5638 5630 5621 5613 5602 5591 5579 5563 5552 5537 5523 5508 5495 5487 5482 5480 5478 5476 5477 5476 5473 5472 5471 5470 5469 5470 5471 5473 5477 5483 5490 5496
5706 5699 5692 5685 5678 5671 5663 5655 5647 5639 5631 5623 5614 5603 5593 5582 5570 5555 5538 5519 5509 5501 5491 5481 5475 5471 5468 5467 5465 5464 5462 5462 5460 5459 5457 5456 5455 5457 5459 5459 5464 5468 5474
5693 5687 5680 5672 5663 5656 5650 5642 5633 5625 5616 5607 5595 5584 5572 5562 5548 5531 5515 5498 5483 5480 5477 5472 5466 5462 5458 5456 5453 5450 5450 5448 5446 5444 5444 5441 5441 5442 5443 5444 5448 5452 5455
5682 5674 5667 5659 5650 5642 5634 5626 5617 5608 5598 5587 5577 5565 5552 5540 5526 5510 5495 5482 5471 5464 5462 5459 5457 5452 5448 5444 5441 5437 5435 5433 5430 5428 5426 5426 5426 5426 5427 5429 5432 5436 5439
5669 5661 5653 5645 5637 5628 5619 5609 5600 5592 5582 5570 5559 5548 5535 5521 5505 5490 5478 5467 5460 5454 5449 5448 5445 5441 5436 5432 5428 5423 5421 5418 5416 5413 5411 5410 5411 5411 5412 5413 5416 5420 5423
5656 5647 5639 5631 5623 5613 5604 5595 5586 5575 5565 5552 5542 5529 5517 5504 5488 5474 5463 5457 5450 5445 5440 5436 5434 5430 5425 5420 5415 5412 5408 5403 5401 5399 5396 5395 5396 5397 5399 5400 5402 5405 5408
5643 5634 5626 5616 5608 5598 5588 5579 5569 5558 5547 5536 5526 5514 5499 5486 5472 5461 5451 5446 5441 5435 5430 5425 5422 5418 5413 5407 5404 5399 5395 5390 5387 5385 5383 5383 5383 5385 5386 5387 5388 5392 5394
5628 5620 5610 5601 5593 5584 5572 5559 5550 5540 5531 5521 5507 5495 5482 5471 5459 5448 5442 5437 5432 5426 5421 5416 5411 5406 5401 5396 5389 5387 5383 5378 5376 5374 5373 5372 5371 5372 5372 5372 5376 5378 5380
5614 5605 5597 5587 5578 5567 5556 5542 5532 5524 5514 5503 5490 5475 5464 5455 5448 5437 5432 5427 5422 5417 5411 5406 5401 5395 5389 5385 5379 5375 5372 5370 5367 5362 5361 5359 5358 5357 5357 5358 5360 5362 5365
5597 5590 5581 5571 5560 5550 5538 5527 5517 5508 5497 5486 5473 5463 5452 5442 5434 5427 5422 5418 5413 5408 5403 5398 5392 5386 5380 5374 5370 5367 5363 5360 5358 5349 5348 5347 5346 5344 5343 5344 5345 5346 5350
5583 5573 5563 5553 5543 5533 5522 5513 5502 5491 5481 5469 5457 5449 5439 5431 5422 5418 5412 5407 5402 5396 5391 5386 5382 5376 5371 5365 5363 5360 5355 5350 5344 5340 5338 5336 5334 5331 5329 5329 5329 5331 5336
5567 5555 5545 5536 5526 5516 5508 5496 5486 5476 5466 5453 5447 5437 5429 5422 5414 5410 5404 5399 5393 5388 5382 5376 5371 5366 5361 5357 5355 5351 5347 5341 5335 5330 5328 5324 5321 5318 5317 5317 5322 5325 5329
5551 5540 5529 5519 5510 5501 5490 5481 5472 5464 5453 5444 5435 5427 5420 5413 5407 5402 5396 5391 5386 5380 5374 5368 5363 5358 5354 5351 5348 5344 5338 5333 5327 5322 5318 5313 5308 5308 5308 5310 5312 5315 5322
5535 5524 5514 5505 5495 5486 5476 5468 5459 5449 5442 5434 5426 5419 5412 5406 5400 5395 5390 5384 5379 5373 5367 5361 5355 5350 5347 5344 5341 5337 5332 5326 5321 5315 5310 5305 5302 5302 5301 5301 5304 5310 5315